PRAETORIAN SDA_620

Last updated on Wed Aug 19 2026 00:03:42 GMT+0000 (Coordinated Universal Time)

1 65583U 25203U 26230.24523351 .00000156 00000+0 13108-3 0 9994 2 65583 81.3053 313.4245 0007852 29.7692 330.3910 13.83210876 47276
UTC large
Height (km)
Speed (km/s)
/
Latitude / Longitude
Inclination (degrees)
Orbital Period (minutes)
Azimuth
Elevation
Range (km)
Doppler Factor

Next 0 passes for location: London (51.5072 / 0.1276)

No passes found over London.
PRAETORIAN SDA_620